New Paris, IN

6:38 AM EST on February 13, 2016 (GMT -0500)
Goshen Municipal

Weather History for KGSH - December, 2011

Change the Weather History Date:

Saturday, December 24, 2011

  Actual Average Record
Temperature  
Mean Temperature 31 °F -  
Max Temperature 37 °F 32 °F 57 °F (1979)
Min Temperature 25 °F 19 °F -18 °F (1983)
Degree Days  
Heating Degree Days 34    
Moisture  
Dew Point 24 °F    
Average Humidity 78    
Maximum Humidity 88    
Minimum Humidity 59    
Precipitation  
Precipitation 0.00 in - - ()
Sea Level Pressure  
Sea Level Pressure 30.31 in    
Wind  
Wind Speed 11 mph (SW)    
Max Wind Speed 17 mph    
Max Gust Speed 23 mph    
Visibility 9 miles    
Events Snow    
Averages and records for this station are not official NWS values.
T = Trace of Precipitation, MM = Missing Value Source: NWS Daily Summary

Daily Weather History Graph

Daily Weather History Graph

Search for Another Location

Airport or City:

Trip Planner

Search our weather history database for the weather conditions in past years. The results will help you decide how hot, cold, wet, or windy it might be!

Date:

Astronomy

Dec. 24, 2011 Rise Set
Actual Time 8:07 AM EST 5:17 PM EST
Civil Twilight 7:36 AM EST 5:49 PM EST
Nautical Twilight 7:01 AM EST 6:24 PM EST
Astronomical Twilight 6:27 AM EST 6:58 PM EST
Moon 7:55 AM EST (12/24) 5:30 PM EST (12/24)
Length of Visible Light 10h 13m
Length of Day
9h 10m
Waning Crescent, 0% of the Moon is Illuminated
Dec 24
Waning Crescent
Dec 24
New
Jan 1
First Quarter
Jan 9
Full
Jan 16
Last Quarter

Hourly Weather History & Observations

Time (EST) Temp. Windchill Dew Point Humidity Pressure Visibility Wind Dir Wind Speed Gust Speed Precip Events Conditions
12:09 AM 28.4 °F 17.5 °F 24.8 °F 86% 30.28 in 6.0 mi West 13.8 mph - 0.00 in Snow Light Snow
12:20 AM 28.4 °F 19.1 °F 24.8 °F 86% 30.28 in 6.0 mi WSW 10.4 mph - 0.00 in Snow Light Snow
12:50 AM 28.4 °F 19.1 °F 24.8 °F 86% 30.28 in 7.0 mi West 10.4 mph - 0.00 in Snow Light Snow
12:53 AM 28.9 °F 19.2 °F 24.1 °F 82% 30.31 in 8.0 mi WSW 11.5 mph - 0.00 in Snow Light Snow
1:14 AM 28.4 °F 19.7 °F 23.0 °F 80% 30.28 in 10.0 mi West 9.2 mph - 0.00 in   Overcast
1:53 AM 28.9 °F 19.2 °F 23.0 °F 78% 30.32 in 10.0 mi WSW 11.5 mph - 0.00 in   Overcast
2:53 AM 28.9 °F 19.8 °F 21.9 °F 75% 30.33 in 10.0 mi WSW 10.4 mph - N/A   Overcast
3:53 AM 28.0 °F 20.8 °F 23.0 °F 81% 30.34 in 10.0 mi SW 6.9 mph - N/A   Mostly Cloudy
4:53 AM 27.0 °F 21.6 °F 21.9 °F 81% 30.34 in 10.0 mi SSW 4.6 mph - N/A   Clear
5:53 AM 26.1 °F 20.5 °F 21.9 °F 84% 30.36 in 10.0 mi South 4.6 mph - N/A   Clear
6:53 AM 25.0 °F 19.3 °F 21.9 °F 88% 30.38 in 9.0 mi South 4.6 mph - N/A   Clear
7:53 AM 26.1 °F 20.5 °F 23.0 °F 88% 30.38 in 9.0 mi South 4.6 mph - N/A   Clear
8:53 AM 27.0 °F 21.6 °F 23.0 °F 85% 30.38 in 7.0 mi SSE 4.6 mph - N/A   Clear
9:53 AM 28.9 °F 19.8 °F 25.0 °F 85% 30.38 in 8.0 mi SSW 10.4 mph - N/A   Clear
10:53 AM 30.9 °F 22.8 °F 24.1 °F 76% 30.38 in 10.0 mi South 9.2 mph - N/A   Partly Cloudy
11:53 AM 33.1 °F 24.9 °F 24.1 °F 70% 30.36 in 10.0 mi SSW 10.4 mph - N/A   Clear
12:53 PM 35.1 °F 25.9 °F 25.0 °F 67% 30.33 in 10.0 mi SSW 13.8 mph - N/A   Clear
1:53 PM 36.0 °F 26.0 °F 25.0 °F 64% 30.31 in 10.0 mi SSW 17.3 mph 23.0 mph N/A   Clear
2:53 PM 37.0 °F 27.4 °F 24.1 °F 59% 30.29 in 10.0 mi SSW 17.3 mph - N/A   Clear
3:53 PM 37.0 °F 27.7 °F 25.0 °F 62% 30.28 in 10.0 mi SW 16.1 mph - N/A   Clear
4:53 PM 36.0 °F 28.0 °F 25.0 °F 64% 30.28 in 10.0 mi SW 11.5 mph 20.7 mph N/A   Clear
5:53 PM 33.1 °F 26.9 °F 26.1 °F 75% 30.29 in 10.0 mi SSW 6.9 mph - N/A   Clear
7:53 PM 32.0 °F 24.2 °F 26.1 °F 79% 30.27 in 10.0 mi SSW 9.2 mph - N/A   Clear
8:53 PM 32.0 °F 22.1 °F 26.1 °F 79% 30.25 in 10.0 mi SW 13.8 mph - N/A   Clear
9:53 PM 33.1 °F 22.6 °F 26.1 °F 75% 30.25 in 10.0 mi SW 16.1 mph - N/A   Clear
10:53 PM 33.1 °F 23.0 °F 27.0 °F 78% 30.24 in 10.0 mi SW 15.0 mph - N/A   Clear
11:53 PM 32.0 °F 23.0 °F 27.0 °F 82% 30.22 in 10.0 mi SW 11.5 mph - N/A   Clear